sat.trackr.live / text

‹ back to catalog

STARLINK-30355

NORAD 57777 · 2023-134G

PAYLOAD ACTIVE UNKNOWN

§ Identity

Operator
Country
US
Launch date
2023-09-04
Launch site
AFETR
Launch vehicle
Mass (kg)
RCS (m²)

Purposes: comms

External: N2YO · Heavens-Above · Gunter

§ Orbital elements

Epoch: 2026-09-20T11:07:20.835840Z

Period
94.27 min
Inclination
42.9990°
Eccentricity
0.0000539
Mean motion
15.27577181 rev/d
Perigee alt
482.7 km
Apogee alt
483.4 km
Semi-major
6,861.2 km
B*
1.6081e-6
RAAN
178.0011°
Arg perigee
270.2817°
Mean anomaly
89.7973°
Rev number
16,924

§ Raw data

STARLINK-303551 57777U 23134G   26263.46343560 -.00000217  00000+0  16081-5 0  99972 57777  42.9990 178.0011 0000539 270.2817  89.7973 15.27577181169249

JSON: /api/v1/satellites/57777 · /tle

For live sub-satellite position, see the globe view (requires WebGL).

§ Visibility from observer

Set your observer location to see the next 7 days of passes ≥ 10°. The values pass through the URL so the page stays shareable.

No JS? Fill the form by hand. The geolocation button needs JavaScript.